Regional Weather Roundup
Issued by NWS

Home | Current Version | Previous Version | Graphics & Text | Print | Product List | Glossary On
Versions: 1 2 3 4 5 6 7 8 9 10 11 12 13 14 15 16 17 18 19 20 21 22 23 24 25 26 27 28 29 30 31 32 33 34 35 36 37 38 39 40 41 42 43 44 45 46 47 48 49 50
000
ASUS45 KBOU 041407
RWRCO

WEATHER ROUNDUP FOR COLORADO
NATIONAL WEATHER SERVICE DENVER/BOULDER CO
700 AM MST WED MAR 04 2015

NOTE: "FAIR" INDICATES FEW OR NO CLOUDS BELOW 12000 FEET WITH NO
SIGNIFICANT WEATHER AND/OR OBSTRUCTIONS TO VISIBILITY.

COZ001>005-013-030-031-041500-
...NORTHWEST COLORADO...

CITY           SKY/WX    TMP DP  RH WIND       PRES   REMARKS
CRAIG          MOCLDY     3  -1  83 E3        30.02R
HAYDEN         PTCLDY     3   1  92 CALM      29.99R
MEEKER         PTCLDY     4  -1  80 NE8       30.00R WCI  -9
MOUNT WERNER   NOT AVBL
STEAMBOAT SPGS CLOUDY     8   4  81 E3        29.97R
WALDEN         CLOUDY     0  -6  78 NE6       29.90R WCI -12
$$

COZ006>008-011-041500-
...WEST CENTRAL VALLEYS...

CITY           SKY/WX    TMP DP  RH WIND       PRES   REMARKS
GRAND JUNCTION MOCLDY    25  19  78 W5        30.02R WCI  19
MONTROSE       CLOUDY    26  20  77 N3        30.00R
EAGLE          MOCLDY    16  12  86 VRB3      30.01R
RIFLE          CLOUDY    22  10  60 W5        30.03R WCI  16
DELTA          PTCLDY    28  21  75 W8        29.99R WCI  20
NUCLA          CLOUDY    27  19  74 NW9       30.01R WCI  17
$$

COZ017>023-064>068-041500-
...SOUTHWEST COLORADO...

CITY           SKY/WX    TMP DP  RH WIND       PRES   REMARKS
DURANGO        MOCLDY    16  12  84 N5        29.90R WCI   9
CORTEZ         CLOUDY    26  16  65 NW8       29.95R WCI  18
PAGOSA SPRINGS CLOUDY    19  19  98 CALM      29.89R
TELLURIDE      LGT SNOW  17  16  94 CALM      29.89R
WOLF CREEK PAS   N/A      7   5  92 MISG      29.82R
$$

COZ009-010-012-014-032>034-037-058>063-041500-
...CENTRAL COLORADO...

CITY           SKY/WX    TMP DP  RH WIND       PRES   REMARKS
ASPEN          CLOUDY    14   8  77 VRB5      29.93R WCI   6
BUENA VISTA    CLOUDY    19   9  67 N9G16     29.86R WCI   7
COPPER MTN     NOT AVBL
BERTHOUD PASS  NOT AVBL
COTTONWOOD PAS CLOUDY    14  10  85 S8        29.80R WCI   3
GUNNISON       CLOUDY    16   9  73 NW7       29.90R WCI   6
KREMMLING      CLOUDY    12   3  67 CALM      29.96R
LEADVILLE      CLOUDY     3  -5  69 N10       29.82R WCI -12
SALIDA         CLOUDY    20  18  91 E14G22    29.95R WCI   7
SUNLIGHT         N/A    N/A N/A N/A N6          N/A
WILKERSON PASS SNOW       3   0  85 N9        29.78R VSB 1/2 WCI -11
$$

COZ069>075-041500-
...SAN LUIS VALLEY/SANGRE DE CRISTO MOUNTAINS...

CITY           SKY/WX    TMP DP  RH WIND       PRES   REMARKS
ALAMOSA        CLEAR     18  12  77 W6        29.85R WCI  10
LA VETA PASS   SNOW       9   5  85 MISG      29.82R VSB 1/4
SAGUACHE       PTCLDY    21  12  68 NW12      29.86S WCI   9
$$

COZ035-036-038>040-041500-
...NORTHERN COLORADO FRONT RANGE...

CITY           SKY/WX    TMP DP  RH WIND       PRES   REMARKS
DENVER INTL AP LGT SNOW  10   7  87 NE8       30.10R FOG     WCI  -2
DMNS CITY PARK   N/A     12   9  88 NE3       30.12R
AURORA         LGT SNOW   9   7  91 N5        30.09R FOG     WCI   1
FRONT RANGE AP NOT AVBL
ERIE MUNI ARPT LGT SNOW  12   9  88 E3        30.13R
BOULDER MUN AP LGT SNOW  14  12  92 CALM      30.11R
CENTENNIAL     CLOUDY    10   6  84 CALM      30.06R FOG
BROOMFIELD     NOT AVBL
FORT COLLINS   PTCLDY    10   7  85 SE5       30.14R WCI   2
LONGMONT       LGT SNOW  14  10  85 SE5       30.15R WCI   6
$$

COZ041-046-047-076>085-087-088-041500-
...PIKES PEAK/PALMER DIVIDE AND SOUTHERN FOOTHILLS...

CITY           SKY/WX    TMP DP  RH WIND       PRES   REMARKS
COLO. SPRINGS  LGT SNOW  10   4  76 N10       30.03R FOG     WCI  -4
A. F. ACADEMY  LGT SNOW   8   2  75 N13       29.99R WCI  -8
ELLICOTT       NOT AVBL
FALCON         LGT SNOW   7   3  85 N13       29.99R WCI -10
FORT CARSON    LGT SNOW  12   9  85 N13       30.03R VSB 1   WCI  -3
LIMON          LGT SNOW   9   6  88 N13       30.09R FOG     WCI  -7
MONUMENT HILL  LGT SNOW   5   3  92 N5        29.97S WCI  -4
TRINIDAD       FRZ RAIN  25  22  88 NE13      29.98R FOG     WCI  14
$$

COZ042>045-048>051-090-091-041500-
...NORTHEAST COLORADO...

CITY           SKY/WX    TMP DP  RH WIND       PRES   REMARKS
GREELEY ARPT   PTCLDY    12   3  67 CALM      30.15R
AKRON          CLOUDY    10   8  92 NW8       30.13R WCI  -2
BURLINGTON     LGT SNOW  15  10  80 N8        30.15R WCI   4
WRAY           CLOUDY    14  11  87 NW6       30.19R WCI   5
STERLING       CLOUDY    12   9  85 NW7       30.17R WCI   2
HOLYOKE        NOT AVBL
FORT MORGAN    CLOUDY    12   9  86 W3        30.16R
$$

COZ086-089-092>099-041500-
...SOUTHEAST COLORADO...

CITY           SKY/WX    TMP DP  RH WIND       PRES   REMARKS
PUEBLO         LGT SNOW  19  16  88 E18       30.08R VSB 3/4 WCI   4
LA JUNTA       LGT SNOW  19  15  84 E18       30.13R FOG     WCI   4
LAMAR          LGT SNOW  18  15  88 E9        30.15R VSB 3/4 WCI   7
SPRINGFIELD      N/A     15  13  91 NE17      30.08R WCI  -1
$$


USA.gov is the U.S. government's official web portal to all federal, state and local government web resources and services.